Location: Cossonay
(46.5833°N, 6.4167°E)
Time: 21:51:18
(UTC+00:00)

STARLINK-1257 - Pass Details

Date: 04 October 2020
Orbit: 549 x 550 km, 53.0° (Epoch: 22 October)

Event Time Altitude Azimuth Distance (km) Brightness Sun altitude
Exits shadow 03:05:54 22° 137° (SE) 1,232 5.5 -26.3°
Maximum altitude 03:06:05 22° 133° (SE) 1,229 5.6 -26.3°
Drops below altitude 10° 03:09:18 10° 82° (E) 1,823 7.2 -25.8°
Sets 03:11:54 0° 67° (ENE) 2,721 8.5 -25.3°
